M I D A S
Marine Information and Data Acquisition System
Tripno 734 of the Zeeleeuw from 2004-06-11 06:30:01 to 2004-06-11 14:35:07
Back to CruiseResearch ActivitiesStationsMapUnderway DataData graphs

EquipmentUnitsComments
TimeDGPSUTC
LatitudeDGPSDM.mWGS84
LongitudeDGPSDM.mWGS84
SpeedMeteo Stationm/sRelative wind speed
DirectionMeteo StationdegRelative wind direction
TemperatureMeteo Stationdeg CelciusAir temperature
PressureMeteo StationPaAtmospheric pressure
HumidityMeteo Station%Relative humidity
Missing or incorrect values are displayed as -999
Metereological data collected by the RV Zeeleeuw from 2004-06-11 06:30:01 to 2004-06-11 14:35:07
Time Latitude Longitude Speed Direction Temperature Pressure Humidity
2004-06-11 06:31 51°14.187 2°55.373 9.1 330 15.9 101820 85
2004-06-11 06:32 51°14.321 2°55.157 10.9 338 16 101800 86
2004-06-11 06:33 51°14.454 2°54.909 14.7 342 15.9 101780 86
2004-06-11 06:34 51°14.506 2°54.615 14.6 348 15.9 101790 86
2004-06-11 06:35 51°14.529 2°54.32 15.8 350 15.9 101790 87
2004-06-11 06:36 51°14.544 2°54.017 14.3 345 15.9 101790 87
2004-06-11 06:37 51°14.556 2°53.714 14.6 353 15.8 101790 87
2004-06-11 06:38 51°14.555 2°53.423 13.8 345 15.8 101790 88
2004-06-11 06:39 51°14.625 2°53.264 10.4 296 15.8 101800 88
2004-06-11 06:40 51°14.688 2°53.265 8.2 260 15.8 101820 89
2004-06-11 06:41 51°14.735 2°53.291 10.4 268 15.8 101820 89
2004-06-11 06:42 51°14.771 2°53.315 10.4 270 15.7 101830 89
2004-06-11 06:43 51°14.8 2°53.343 8.7 278 15.7 101820 89
2004-06-11 06:44 51°14.826 2°53.374 9 275 15.8 101820 89
2004-06-11 06:45 51°14.85 2°53.405 8.7 270 15.9 101820 90
2004-06-11 06:46 51°14.873 2°53.439 9.3 283 15.9 101810 89
2004-06-11 06:47 51°14.895 2°53.474 10 275 15.8 101810 89
2004-06-11 06:48 51°14.934 2°53.473 10.5 325 15.8 101800 89
2004-06-11 06:49 51°14.931 2°53.295 13.4 359 15.8 101800 90
2004-06-11 06:50 51°14.912 2°53.042 15.5 357 15.7 101790 89
2004-06-11 06:51 51°14.898 2°52.77 14.8 353 15.7 101800 89
2004-06-11 06:52 51°14.883 2°52.499 14.5 353 15.6 101810 89
2004-06-11 06:53 51°14.868 2°52.226 14.6 358 15.7 101800 89
2004-06-11 06:54 51°14.854 2°51.947 14.5 356 15.7 101800 88
2004-06-11 06:55 51°14.841 2°51.677 15.8 355 15.7 101800 88
2004-06-11 06:56 51°14.809 2°51.516 10.7 21 15.7 101810 89
2004-06-11 06:57 51°14.772 2°51.472 10.6 26 15.7 101800 89
2004-06-11 06:58 51°14.746 2°51.451 9.1 28 15.6 101800 89
2004-06-11 06:59 51°14.727 2°51.41 11.2 355 15.6 101810 89
2004-06-11 07:00 51°14.719 2°51.341 10.9   15.5 101810 89
2004-06-11 07:01 51°14.696 2°51.275 11.1 11 15.6 101810 90
2004-06-11 07:02 51°14.672 2°51.225 11 14 15.5 101820 89
2004-06-11 07:03 51°14.655 2°51.172 12 1 15.6 101820 89
2004-06-11 07:04 51°14.646 2°51.112 11 10 15.6 101820 89
2004-06-11 07:05 51°14.637 2°51.051 10.4 7 15.6 101810 89
2004-06-11 07:06 51°14.626 2°50.996 9.4 5 15.6 101820 89
2004-06-11 07:07 51°14.615 2°50.939 11.1 6 15.6 101820 89
2004-06-11 07:08 51°14.606 2°50.885 11.2 2 15.6 101820 90
2004-06-11 07:09 51°14.595 2°50.833 10.3 11 15.6 101820 89
2004-06-11 07:10 51°14.58 2°50.782 11.1 4 15.6 101820 89
2004-06-11 07:11 51°14.57 2°50.731 9.5 10 15.6 101820 89
2004-06-11 07:12 51°14.562 2°50.676 10.3 2 15.7 101820 89
2004-06-11 07:13 51°14.554 2°50.623 9.9 5 15.7 101820 89
2004-06-11 07:14 51°14.543 2°50.571 11 7 15.7 101810 89
2004-06-11 07:15 51°14.532 2°50.519 11.6 5 15.7 101810 88
2004-06-11 07:16 51°14.519 2°50.467 11.7 9 15.6 101810 87
2004-06-11 07:17 51°14.503 2°50.414 11.6 11 15.6 101810 88
2004-06-11 07:18 51°14.485 2°50.361 11.4 9 15.6 101810 87
2004-06-11 07:19 51°14.468 2°50.312 11.1 14 15.6 101820 87
2004-06-11 07:20 51°14.451 2°50.263 11.5 13 15.7 101810 87
2004-06-11 07:21 51°14.433 2°50.211 12.3 10 15.6 101820 86
2004-06-11 07:22 51°14.415 2°50.161 11.7 15 15.6 101820 86
2004-06-11 07:23 51°14.395 2°50.111 11.4 10 15.7 101830 86
2004-06-11 07:24 51°14.378 2°50.058 11.4 10 15.7 101820 87
2004-06-11 07:25 51°14.361 2°50.005 11 11 15.8 101810 87
2004-06-11 07:26 51°14.342 2°49.955 12.1 9 15.7 101830 86
2004-06-11 07:27 51°14.324 2°49.906 11.4 12 15.7 101810 86
2004-06-11 07:28 51°14.305 2°49.86 11.4 11 15.7 101820 86
2004-06-11 07:29 51°14.286 2°49.811 11 13 15.7 101810 86
2004-06-11 07:30 51°14.267 2°49.764 10.9 12 15.7 101820 86
2004-06-11 07:31 51°14.247 2°49.722 10.1 7 15.8 101820 86
2004-06-11 07:32 51°14.23 2°49.674 10.8 11 15.7 101820 86
2004-06-11 07:33 51°14.218 2°49.621 9.8 12 15.7 101820 86
2004-06-11 07:34 51°14.207 2°49.567 10.5 3 15.7 101820 86
2004-06-11 07:35 51°14.201 2°49.51 10.5 358 15.8 101820 87
2004-06-11 07:36 51°14.21 2°49.454 9.9 340 15.8 101820 87
2004-06-11 07:37 51°14.232 2°49.431 9 317 15.8 101810 86
2004-06-11 07:38 51°14.261 2°49.418 10 300 15.8 101810 87
2004-06-11 07:39 51°14.34 2°49.476 4.6 200 15.9 101830 87
2004-06-11 07:40 51°14.372 2°49.607 6.6 171 15.9 101840 86
2004-06-11 07:41 51°14.39 2°49.711 6.8 161 15.9 101840 86
2004-06-11 07:42 51°14.403 2°49.802 8.2 164 15.8 101840 85
2004-06-11 07:43 51°14.417 2°49.89 7.2 168 15.7 101840 85
2004-06-11 07:44 51°14.437 2°49.973 4.5 200 15.8 101840 85
2004-06-11 07:45 51°14.459 2°50.05 5.9 202 16 101840 86
2004-06-11 07:46 51°14.483 2°50.133 5.7 202 16.1 101840 84
2004-06-11 07:47 51°14.506 2°50.21 6 201 16 101840 84
2004-06-11 07:48 51°14.53 2°50.289 4.5 198 15.9 101840 84
2004-06-11 07:49 51°14.555 2°50.367 4.8 205 15.9 101830 83
2004-06-11 07:50 51°14.579 2°50.446 3.9 192 16 101830 84
2004-06-11 07:51 51°14.6 2°50.526 4.4 197 16.1 101840 83
2004-06-11 07:52 51°14.623 2°50.611 5.2 179 16.3 101840 84
2004-06-11 07:53 51°14.644 2°50.69 7.2 178 16.2 101840 82
2004-06-11 07:54 51°14.661 2°50.771 6.4 179 16.1 101840 83
2004-06-11 07:55 51°14.681 2°50.853 4.3 190 16 101850 83
2004-06-11 07:56 51°14.706 2°50.928 8.2 212 16 101840 83
2004-06-11 07:57 51°14.737 2°50.988 10 234 15.9 101830 82
2004-06-11 07:58 51°14.769 2°51.039 6.8 252 15.9 101830 84
2004-06-11 07:59 51°14.798 2°51.078 9.1 264 15.9 101820 83
2004-06-11 08:00 51°14.824 2°51.108 10.7 271 15.9 101830 83
2004-06-11 08:01 51°14.846 2°51.136 9.8 274 15.9 101830 84
2004-06-11 08:02 51°14.868 2°51.166 8.9 268 16 101820 85
2004-06-11 08:03 51°14.889 2°51.197 8.5 285 16 101820 85
2004-06-11 08:04 51°14.909 2°51.227 9.9 286 16 101830 85
2004-06-11 08:05 51°14.934 2°51.25 9 293 15.9 101820 85
2004-06-11 08:06 51°14.963 2°51.263 7.6 304 15.9 101820 85
2004-06-11 08:07 51°14.993 2°51.273 9.8 299 16 101820 86
2004-06-11 08:08 51°15.027 2°51.284 9 292 16 101820 85
2004-06-11 08:09 51°15.061 2°51.292 8.4 305 16.1 101820 85
2004-06-11 08:10 51°15.092 2°51.296 9.1 315 16 101820 85
2004-06-11 08:11 51°15.12 2°51.297 9.2 321 16.1 101820 85
2004-06-11 08:12 51°15.147 2°51.3 9.1 315 16.1 101820 85
2004-06-11 08:13 51°15.173 2°51.302 7.5 41 16.1 101830 85
2004-06-11 08:14 51°15.201 2°51.234 11.8 349 16.1 101810 84
2004-06-11 08:15 51°15.131 2°51.015 15.2 9 16.1 101810 85
2004-06-11 08:16 51°15.009 2°50.737 16.5 16 16 101800 85
2004-06-11 08:17 51°14.887 2°50.467 16.6 13 16 101810 85
2004-06-11 08:18 51°14.769 2°50.204 16.4 17 15.9 101800 84
2004-06-11 08:19 51°14.664 2°49.915 16.1 8 15.9 101810 84
2004-06-11 08:20 51°14.589 2°49.594 17 360 15.9 101820 84
2004-06-11 08:21 51°14.52 2°49.267 16.2 7 15.9 101810 84
2004-06-11 08:22 51°14.457 2°48.95 15.7 5 15.9 101800 84
2004-06-11 08:23 51°14.393 2°48.623 14.7 8 15.9 101800 84
2004-06-11 08:24 51°14.328 2°48.308 15.1 7 15.9 101800 85
2004-06-11 08:25 51°14.265 2°47.988 15.6 3 15.9 101800 84
2004-06-11 08:26 51°14.202 2°47.664 16.4 3 15.9 101800 84
2004-06-11 08:27 51°14.137 2°47.331 15.3 6 15.8 101800 84
2004-06-11 08:28 51°14.076 2°47.021 15.6 2 15.9 101800 84
2004-06-11 08:29 51°14.015 2°46.707 15.1 3 15.9 101790 85
2004-06-11 08:30 51°13.951 2°46.382 15.3 2 15.9 101800 84
2004-06-11 08:31 51°13.89 2°46.063 15.9 359 15.9 101800 84
2004-06-11 08:32 51°13.79 2°45.774 15.3 14 15.9 101800 84
2004-06-11 08:33 51°13.661 2°45.514 15.8 15 15.9 101810 85
2004-06-11 08:34 51°13.523 2°45.253 15.8 21 15.9 101800 84
2004-06-11 08:35 51°13.364 2°45.056 15.1 25 15.9 101810 85
2004-06-11 08:36 51°13.203 2°44.847 15.6 18 15.9 101810 84
2004-06-11 08:37 51°13.057 2°44.613 15.6 11 15.9 101810 84
2004-06-11 08:38 51°12.945 2°44.335 15.3 11 15.9 101810 84
2004-06-11 08:39 51°12.835 2°44.058 14.7 13 15.9 101820 84
2004-06-11 08:40 51°12.719 2°43.765 15.3 9 15.9 101820 85
2004-06-11 08:41 51°12.61 2°43.493 15.4 14 15.8 101820 83
2004-06-11 08:42 51°12.497 2°43.211 15.5 11 15.9 101830 83
2004-06-11 08:43 51°12.387 2°42.938 15.5 14 15.9 101840 83
2004-06-11 08:44 51°12.277 2°42.661 14.2 13 15.9 101840 84
2004-06-11 08:45 51°12.167 2°42.381 14.8 9 15.9 101840 84
2004-06-11 08:46 51°12.056 2°42.101 13.1 10 15.9 101830 84
2004-06-11 08:47 51°11.944 2°41.822 14.3 9 15.9 101830 84
2004-06-11 08:48 51°11.833 2°41.543 14.9 12 15.9 101820 84
2004-06-11 08:49 51°11.719 2°41.254 15.4 9 15.8 101830 83
2004-06-11 08:50 51°11.608 2°40.972 13.9 16 15.9 101840 83
2004-06-11 08:51 51°11.5 2°40.703 14.7 10 15.9 101840 84
2004-06-11 08:52 51°11.392 2°40.432 14.9 13 15.9 101840 84
2004-06-11 08:53 51°11.276 2°40.145 14.1 14 15.9 101840 83
2004-06-11 08:54 51°11.155 2°39.876 14.5 13 15.9 101850 84
2004-06-11 08:55 51°11.033 2°39.609 13.8 12 15.9 101840 83
2004-06-11 08:56 51°10.912 2°39.341 14.1 11 15.9 101840 83
2004-06-11 08:57 51°10.787 2°39.068 14.4 19 15.9 101820 83
2004-06-11 08:58 51°10.662 2°38.8 13.6 9 16 101830 83
2004-06-11 08:59 51°10.539 2°38.532 14.9 16 16 101840 83
2004-06-11 09:00 51°10.409 2°38.252 15.5 17 16 101830 82
2004-06-11 09:01 51°10.284 2°37.989 14.4 15 16 101840 83
2004-06-11 09:02 51°10.152 2°37.712 15.3 14 16 101830 82
2004-06-11 09:03 51°10.024 2°37.442 15.8 13 16.1 101830 82
2004-06-11 09:04 51°9.894 2°37.17 15.1 12 16.1 101830 81
2004-06-11 09:05 51°9.762 2°36.886 13.8 13 16.1 101830 81
2004-06-11 09:06 51°9.637 2°36.61 14.4 12 16.1 101830 81
2004-06-11 09:07 51°9.51 2°36.333 14.2 13 16.1 101830 82
2004-06-11 09:08 51°9.389 2°36.062 15.5 11 16.2 101830 82
2004-06-11 09:09 51°9.265 2°35.78 15.1 11 16.1 101820 80
2004-06-11 09:10 51°9.149 2°35.492 14.5 10 16.2 101820 81
2004-06-11 09:11 51°9.028 2°35.207 15.8 11 16.2 101830 80
2004-06-11 09:12 51°8.903 2°34.927 14.6 11 16.2 101830 80
2004-06-11 09:13 51°8.848 2°34.722 10.7 337 16.3 101830 80
2004-06-11 09:14 51°8.877 2°34.667 9.3 279 16.2 101850 79
2004-06-11 09:15 51°8.906 2°34.676 7.1 260 16.2 101850 79
2004-06-11 09:16 51°8.935 2°34.692 8.2 272 16.3 101850 80
2004-06-11 09:17 51°8.961 2°34.706 8.6 276 16.3 101850 81
2004-06-11 09:18 51°8.984 2°34.719 7.9 272 16.3 101850 81
2004-06-11 09:19 51°9.005 2°34.732 9.5 277 16.3 101850 81
2004-06-11 09:20 51°9.025 2°34.746 9.6 286 16.3 101850 81
2004-06-11 09:21 51°9.043 2°34.761 8.1 275 16.3 101850 81
2004-06-11 09:22 51°9.06 2°34.774 9.6 285 16.3 101850 81
2004-06-11 09:23 51°9.078 2°34.787 8.2 290 16.3 101850 80
2004-06-11 09:24 51°9.094 2°34.8 8 288 16.3 101860 80
2004-06-11 09:25 51°9.112 2°34.814 8.2 291 16.3 101860 81
2004-06-11 09:26 51°9.129 2°34.83 9.5 275 16.3 101860 80
2004-06-11 09:27 51°9.144 2°34.845 7.5 282 16.3 101860 80
2004-06-11 09:28 51°9.159 2°34.859 8.5 287 16.3 101860 80
2004-06-11 09:29 51°9.175 2°34.873 7.9 284 16.3 101860 80
2004-06-11 09:30 51°9.191 2°34.888 7.3 272 16.3 101870 80
2004-06-11 09:31 51°9.208 2°34.903 8.4 280 16.3 101870 80
2004-06-11 09:32 51°9.225 2°34.92 7.7 283 16.3 101870 80
2004-06-11 09:33 51°9.241 2°34.936 8.6 276 16.3 101870 80
2004-06-11 09:34 51°9.259 2°34.952 8 276 16.3 101870 80
2004-06-11 09:35 51°9.278 2°34.965 6.6 290 16.3 101870 80
2004-06-11 09:36 51°9.319 2°34.912 9.5 351 16.3 101870 81
2004-06-11 09:37 51°9.283 2°34.812 11 38 16.3 101860 81
2004-06-11 09:38 51°9.186 2°34.772 10.4 41 16.2 101850 80
2004-06-11 09:39 51°9.082 2°34.71 10.2 43 16.2 101850 80
2004-06-11 09:40 51°8.97 2°34.734 8.6 82 16.1 101850 80
2004-06-11 09:41 51°8.871 2°34.837 8.7 57 16.1 101860 80
2004-06-11 09:42 51°8.782 2°34.783 8.7 27 16.1 101860 80
2004-06-11 09:43 51°8.695 2°34.683 10.1 7 16.1 101850 81
2004-06-11 09:44 51°8.682 2°34.597 6.5 334 16.2 101860 80
2004-06-11 09:45 51°8.693 2°34.578 7.6 301 16.4 101860 81
2004-06-11 09:46 51°8.709 2°34.579 8 294 16.3 101860 80
2004-06-11 09:47 51°8.724 2°34.582 7.1 301 16.3 101860 79
2004-06-11 09:48 51°8.737 2°34.587 6.3 302 16.4 101860 80
2004-06-11 09:49 51°8.748 2°34.593 8.1 305 16.4 101860 79
2004-06-11 09:50 51°8.764 2°34.583 7.9 343 16.4 101860 79
2004-06-11 09:51 51°8.757 2°34.535 8.9 38 16.5 101860 79
2004-06-11 09:52 51°8.723 2°34.508 9.1 31 16.3 101850 79
2004-06-11 09:53 51°8.694 2°34.469 4.4 16 16.3 101860 79
2004-06-11 09:54 51°8.672 2°34.416 8.3 17 16.3 101860 79
2004-06-11 09:55 51°8.646 2°34.358 9.3 25 16.4 101860 79
2004-06-11 09:56 51°8.619 2°34.304 9.2 18 16.4 101850 79
2004-06-11 09:57 51°8.591 2°34.245 9.3 12 16.4 101850 79
2004-06-11 09:58 51°8.566 2°34.186 9.4 10 16.4 101860 79
2004-06-11 09:59 51°8.54 2°34.132 8.8 19 16.4 101850 79
2004-06-11 10:00 51°8.514 2°34.081 8.8 18 16.4 101850 79
2004-06-11 10:01 51°8.49 2°34.035 9.5 18 16.5 101850 80
2004-06-11 10:02 51°8.466 2°33.985 8.7 22 16.5 101850 79
2004-06-11 10:03 51°8.444 2°33.931 8.4 12 16.5 101850 79
2004-06-11 10:04 51°8.426 2°33.877 8.8 6 16.4 101850 79
2004-06-11 10:05 51°8.41 2°33.818 8.6 3 16.4 101850 79
2004-06-11 10:06 51°8.394 2°33.754 8.9 5 16.4 101850 80
2004-06-11 10:07 51°8.378 2°33.696 9.2 11 16.3 101860 79
2004-06-11 10:08 51°8.359 2°33.636 8.5 7 16.3 101850 79
2004-06-11 10:09 51°8.339 2°33.574 9.2 16 16.4 101860 80
2004-06-11 10:10 51°8.317 2°33.518 7.6 16 16.4 101850 80
2004-06-11 10:11 51°8.293 2°33.464 7.8 18 16.4 101860 80
2004-06-11 10:12 51°8.267 2°33.406 8.9 21 16.4 101860 80
2004-06-11 10:13 51°8.243 2°33.351 9 21 16.4 101860 80
2004-06-11 10:14 51°8.22 2°33.3 8.3 16 16.4 101850 79
2004-06-11 10:15 51°8.198 2°33.247 8.4 16 16.5 101850 79
2004-06-11 10:16 51°8.179 2°33.198 8.6 15 16.5 101850 79
2004-06-11 10:17 51°8.158 2°33.145 8.4 12 16.5 101860 79
2004-06-11 10:18 51°8.14 2°33.096 8.1 13 16.5 101850 79
2004-06-11 10:19 51°8.12 2°33.042 8.6 13 16.5 101850 79
2004-06-11 10:20 51°8.1 2°32.99 8.1 5 16.5 101860 77
2004-06-11 10:21 51°8.083 2°32.938 8.3 9 16.5 101860 79
2004-06-11 10:22 51°8.064 2°32.88 7.8 9 16.5 101860 78
2004-06-11 10:23 51°8.047 2°32.825 7.7 7 16.5 101850 78
2004-06-11 10:24 51°8.029 2°32.769 7.5 10 16.5 101860 78
2004-06-11 10:25 51°8.01 2°32.714 8.8 6 16.5 101850 78
2004-06-11 10:26 51°7.99 2°32.659 8.5 4 16.5 101850 78
2004-06-11 10:27 51°7.971 2°32.605 7.8 7 16.5 101850 77
2004-06-11 10:28 51°7.952 2°32.547 7.5 10 16.5 101850 77
2004-06-11 10:29 51°7.933 2°32.491 7.8 13 16.6 101850 77
2004-06-11 10:30 51°7.913 2°32.434 6.4 7 16.6 101850 77
2004-06-11 10:31 51°7.892 2°32.376 9.1 17 16.6 101850 78
2004-06-11 10:32 51°7.872 2°32.317 8.9 10 16.6 101850 77
2004-06-11 10:33 51°7.852 2°32.248 7.7 16 16.6 101850 77
2004-06-11 10:34 51°7.832 2°32.178 7.7 14 16.7 101850 78
2004-06-11 10:35 51°7.81 2°32.1 9.8 12 16.7 101850 78
2004-06-11 10:36 51°7.789 2°32.025 9.3 27 16.7 101850 78
2004-06-11 10:37 51°7.758 2°31.976 8.7 51 16.7 101840 77
2004-06-11 10:38 51°7.724 2°31.96 8.6 81 16.6 101860 78
2004-06-11 10:39 51°7.687 2°31.974 6.9 117 16.5 101850 79
2004-06-11 10:40 51°7.675 2°32.07 5.3 199 16.5 101860 79
2004-06-11 10:41 51°7.705 2°32.135 6.8 230 16.6 101850 78
2004-06-11 10:42 51°7.733 2°32.172 5.4 249 16.6 101850 78
2004-06-11 10:43 51°7.766 2°32.209 5.7 235 16.6 101850 78
2004-06-11 10:44 51°7.804 2°32.281 3.6 202 16.7 101850 77
2004-06-11 10:45 51°7.824 2°32.364 3.4 192 16.7 101860 78
2004-06-11 10:46 51°7.843 2°32.444 4.5 202 16.9 101860 78
2004-06-11 10:47 51°7.857 2°32.523 2.9 196 16.8 101860 77
2004-06-11 10:48 51°7.866 2°32.598 4 187 17 101860 77
2004-06-11 10:49 51°7.874 2°32.67 3 186 17.3 101860 76
2004-06-11 10:50 51°7.882 2°32.744 3 185 17.5 101860 74
2004-06-11 10:51 51°7.892 2°32.816 4.1 201 17.5 101860 73
2004-06-11 10:52 51°7.907 2°32.879 4.8 215 17.2 101860 74
2004-06-11 10:53 51°7.929 2°32.943 6.3 222 17 101860 74
2004-06-11 10:54 51°7.955 2°33.003 6.9 229 16.9 101860 75
2004-06-11 10:55 51°7.982 2°33.059 5.2 226 16.8 101860 75
2004-06-11 10:56 51°8.011 2°33.117 4.9 229 16.8 101860 76
2004-06-11 10:57 51°8.036 2°33.173 5.2 224 16.8 101870 76
2004-06-11 10:58 51°8.059 2°33.233 5.1 213 16.7 101870 75
2004-06-11 10:59 51°8.079 2°33.298 5 203 16.7 101870 75
2004-06-11 11:00 51°8.094 2°33.364 3.6 199 16.6 101870 75
2004-06-11 11:01 51°8.109 2°33.43 4.9 207 16.6 101870 76
2004-06-11 11:02 51°8.128 2°33.493 5.8 216 16.6 101870 76
2004-06-11 11:03 51°8.148 2°33.554 5.9 216 16.6 101860 77
2004-06-11 11:04 51°8.171 2°33.612 6.5 216 16.6 101870 76
2004-06-11 11:05 51°8.195 2°33.669 6 226 16.6 101870 77
2004-06-11 11:06 51°8.219 2°33.725 6 224 16.6 101870 78
2004-06-11 11:07 51°8.242 2°33.781 5.5 225 16.6 101870 78
2004-06-11 11:08 51°8.265 2°33.837 4.7 229 16.6 101870 78
2004-06-11 11:09 51°8.286 2°33.894 4.2 224 16.7 101860 79
2004-06-11 11:10 51°8.306 2°33.95 5 225 16.6 101870 79
2004-06-11 11:11 51°8.328 2°34.01 5.2 220 16.6 101870 79
2004-06-11 11:12 51°8.347 2°34.065 4.5 220 16.6 101870 79
2004-06-11 11:13 51°8.369 2°34.123 5.7 233 16.6 101860 80
2004-06-11 11:14 51°8.392 2°34.173 6.2 233 16.5 101870 80
2004-06-11 11:15 51°8.419 2°34.224 4.8 243 16.5 101860 80
2004-06-11 11:16 51°8.456 2°34.284 5.4 235 16.5 101860 80
2004-06-11 11:17 51°8.494 2°34.341 5.8 244 16.5 101870 80
2004-06-11 11:18 51°8.534 2°34.404 6.4 242 16.5 101870 80
2004-06-11 11:19 51°8.574 2°34.462 4.5 247 16.4 101870 80
2004-06-11 11:20 51°8.61 2°34.497 5.2 256 16.4 101870 81
2004-06-11 11:21 51°8.639 2°34.51 5.7 260 16.4 101870 81
2004-06-11 11:22 51°8.666 2°34.512 7.5 272 16.4 101890 82
2004-06-11 11:23 51°8.693 2°34.505 7.9 282 16.4 101880 82
2004-06-11 11:24 51°8.719 2°34.492 8.7 291 16.4 101890 81
2004-06-11 11:25 51°8.743 2°34.474 7.5 300 16.5 101880 82
2004-06-11 11:26 51°8.766 2°34.451 7.6 304 16.5 101880 82
2004-06-11 11:27 51°8.788 2°34.425 7.9 311 16.5 101890 82
2004-06-11 11:28 51°8.806 2°34.395 6.4 314 16.6 101880 81
2004-06-11 11:29 51°8.825 2°34.361 8.3 314 16.6 101880 81
2004-06-11 11:30 51°8.84 2°34.324 7.4 321 16.6 101880 81
2004-06-11 11:31 51°8.854 2°34.285 6.6 333 16.7 101880 81
2004-06-11 11:32 51°8.866 2°34.241 4.4 333 16.7 101880 81
2004-06-11 11:33 51°8.874 2°34.175 8.2   16.6 101870 79
2004-06-11 11:34 51°8.826 2°34.079 8.8 69 16.6 101870 79
2004-06-11 11:35 51°8.744 2°34.152 4.7 170 16.5 101870 80
2004-06-11 11:36 51°8.741 2°34.377 2.3 213 16.5 101890 80
2004-06-11 11:37 51°8.758 2°34.658 1.4 215 16.6 101890 80
2004-06-11 11:38 51°8.779 2°34.972 1.1 221 16.7 101890 79
2004-06-11 11:39 51°8.797 2°35.299 0.2 134 16.9 101890 80
2004-06-11 11:40 51°8.84 2°35.484 6 242 16.9 101890 78
2004-06-11 11:41 51°8.884 2°35.564 5.9 235 16.7 101880 78
2004-06-11 11:42 51°8.907 2°35.629 6.5 208 16.7 101880 79
2004-06-11 11:43 51°8.917 2°35.698 6.8 214 16.5 101880 79
2004-06-11 11:44 51°8.929 2°35.765 5.8 223 16.4 101880 79
2004-06-11 11:45 51°8.943 2°35.832 6.8 222 16.4 101880 80
2004-06-11 11:46 51°8.955 2°35.895 7.9 220 16.4 101880 81
2004-06-11 11:47 51°8.967 2°35.961 8 216 16.4 101880 80
2004-06-11 11:48 51°8.981 2°36.026 7.6 219 16.3 101880 79
2004-06-11 11:49 51°8.995 2°36.09 6.8 220 16.4 101880 80
2004-06-11 11:50 51°9.01 2°36.151 6.6 220 16.4 101880 80
2004-06-11 11:51 51°9.03 2°36.213 7.8 227 16.4 101870 79
2004-06-11 11:52 51°9.052 2°36.27 7.7 227 16.4 101870 79
2004-06-11 11:53 51°9.075 2°36.327 6.5 229 16.4 101870 79
2004-06-11 11:54 51°9.096 2°36.385 5.4 227 16.5 101870 79
2004-06-11 11:55 51°9.113 2°36.442 6.7 218 16.4 101870 79
2004-06-11 11:56 51°9.131 2°36.506 6.9 212 16.5 101870 79
2004-06-11 11:57 51°9.148 2°36.565 7.5 215 16.4 101870 78
2004-06-11 11:58 51°9.166 2°36.625 7 213 16.4 101870 77
2004-06-11 11:59 51°9.186 2°36.685 6 215 16.5 101870 77
2004-06-11 12:00 51°9.207 2°36.743 6.4 214 16.5 101860 77
2004-06-11 12:01 51°9.227 2°36.799 7.5 212 16.5 101860 77
2004-06-11 12:02 51°9.249 2°36.858 8.2 217 16.5 101870 76
2004-06-11 12:03 51°9.269 2°36.912 7.4 223 16.5 101860 76
2004-06-11 12:04 51°9.292 2°36.973 6.3 222 16.5 101860 76
2004-06-11 12:05 51°9.312 2°37.03 8 218 16.6 101870 76
2004-06-11 12:06 51°9.332 2°37.088 7.7 222 16.6 101870 75
2004-06-11 12:07 51°9.353 2°37.147 8.5 216 16.6 101870 76
2004-06-11 12:08 51°9.373 2°37.207 9 214 16.6 101870 75
2004-06-11 12:09 51°9.392 2°37.264 9.1 218 16.6 101870 75
2004-06-11 12:10 51°9.412 2°37.324 6.8 218 16.6 101870 76
2004-06-11 12:11 51°9.43 2°37.384 7 214 16.6 101870 76
2004-06-11 12:12 51°9.447 2°37.445 5.9 219 16.6 101860 76
2004-06-11 12:13 51°9.464 2°37.516 7.4 209 16.6 101860 76
2004-06-11 12:14 51°9.475 2°37.596 4.2 192 16.6 101870 76
2004-06-11 12:15 51°9.472 2°37.679 6.2 174 16.7 101870 76
2004-06-11 12:16 51°9.449 2°37.758 7.4 147 16.8 101860 76
2004-06-11 12:17 51°9.41 2°37.82 9.4 135 16.8 101860 77
2004-06-11 12:18 51°9.37 2°37.848 10.2 121 16.7 101860 76
2004-06-11 12:19 51°9.323 2°37.869 7.4 131 16.7 101860 76
2004-06-11 12:20 51°9.297 2°37.971 4.1 196 16.7 101860 77
2004-06-11 12:21 51°9.297 2°38.053 3.4 195 16.8 101860 77
2004-06-11 12:22 51°9.295 2°38.129 3.7 195 17.1 101870 77
2004-06-11 12:23 51°9.299 2°38.2 6.4 200 17.2 101870 76
2004-06-11 12:24 51°9.304 2°38.268 6.5 202 16.9 101870 75
2004-06-11 12:25 51°9.31 2°38.332 5.5 207 16.7 101860 75
2004-06-11 12:26 51°9.316 2°38.398 6.4 203 16.7 101860 76
2004-06-11 12:27 51°9.327 2°38.459 7.6 212 16.6 101860 76
2004-06-11 12:28 51°9.34 2°38.518 6.9 219 16.6 101860 77
2004-06-11 12:29 51°9.355 2°38.575 7.4 212 16.6 101860 76
2004-06-11 12:30 51°9.37 2°38.634 8.3 209 16.6 101860 76
2004-06-11 12:31 51°9.383 2°38.691 6.9 212 16.6 101860 76
2004-06-11 12:32 51°9.397 2°38.753 9.2 213 16.6 101860 76
2004-06-11 12:33 51°9.41 2°38.816 7 206 16.6 101860 75
2004-06-11 12:34 51°9.423 2°38.879 5.8 209 16.6 101860 75
2004-06-11 12:35 51°9.435 2°38.943 6.8 212 16.7 101860 75
2004-06-11 12:36 51°9.447 2°39.006 6.7 209 16.6 101860 75
2004-06-11 12:37 51°9.461 2°39.067 7.7 222 16.7 101860 76
2004-06-11 12:38 51°9.478 2°39.128 7.1 227 16.6 101860 76
2004-06-11 12:39 51°9.497 2°39.186 7.7 222 16.7 101860 76
2004-06-11 12:40 51°9.515 2°39.244 7.2 221 16.7 101860 75
2004-06-11 12:41 51°9.535 2°39.302 8.6 219 16.7 101860 73
2004-06-11 12:42 51°9.553 2°39.362 7.4 221 16.7 101860 73
2004-06-11 12:43 51°9.567 2°39.423 7.9 205 16.7 101870 74
2004-06-11 12:44 51°9.578 2°39.488 5.8 211 16.7 101870 73
2004-06-11 12:45 51°9.588 2°39.553 6.9 206 16.7 101870 72
2004-06-11 12:46 51°9.598 2°39.618 8.1 208 16.7 101870 73
2004-06-11 12:47 51°9.612 2°39.68 5.9 221 16.7 101870 73
2004-06-11 12:48 51°9.628 2°39.741 6.9 213 16.7 101860 73
2004-06-11 12:49 51°9.646 2°39.799 5.2 225 16.8 101860 74
2004-06-11 12:50 51°9.667 2°39.858 7.1 223 16.8 101860 74
2004-06-11 12:51 51°9.686 2°39.914 10 216 16.8 101860 74
2004-06-11 12:52 51°9.708 2°39.977 9.5 224 16.7 101860 72
2004-06-11 12:53 51°9.728 2°40.04 6.5 216 16.8 101860 72
2004-06-11 12:54 51°9.744 2°40.109 6.8 215 16.8 101860 74
2004-06-11 12:55 51°9.753 2°40.188 3.7 184 16.7 101870 73
2004-06-11 12:56 51°9.744 2°40.268 7.7 156 16.9 101870 74
2004-06-11 12:57 51°9.714 2°40.335 10.2 138 16.9 101870 74
2004-06-11 12:58 51°9.675 2°40.377 10.3 130 16.9 101860 74
2004-06-11 12:59 51°9.633 2°40.394 9.4 98 16.9 101870 73
2004-06-11 13:00 51°9.552 2°40.336 13.3 32 16.9 101850 74
2004-06-11 13:01 51°9.496 2°40.095 15.1 16 16.9 101830 75
2004-06-11 13:02 51°9.433 2°39.809 16.2 16 17 101840 76
2004-06-11 13:03 51°9.372 2°39.524 14.5 14 16.9 101830 75
2004-06-11 13:04 51°9.326 2°39.283 13.9 12 17 101840 75
2004-06-11 13:05 51°9.324 2°39.126 10.6 338 16.9 101850 75
2004-06-11 13:06 51°9.348 2°39.045 10.3 310 16.9 101840 74
2004-06-11 13:07 51°9.372 2°39.007 8.8 295 17 101840 75
2004-06-11 13:08 51°9.391 2°38.977 9.7 298 17 101850 76
2004-06-11 13:09 51°9.404 2°38.954 9.6 300 17 101850 77
2004-06-11 13:10 51°9.414 2°38.937 11.1 298 17 101850 76
2004-06-11 13:11 51°9.422 2°38.922 11.3 289 17 101850 76
2004-06-11 13:12 51°9.429 2°38.911 10.8 285 17 101840 76
2004-06-11 13:13 51°9.435 2°38.899 10 284 17 101850 75
2004-06-11 13:14 51°9.449 2°38.88 10.8 296 17.1 101870 76
2004-06-11 13:15 51°9.466 2°38.854 11.9 305 17.1 101860 77
2004-06-11 13:16 51°9.482 2°38.822 10.2 309 17.1 101870 76
2004-06-11 13:17 51°9.501 2°38.789 10.7 300 17 101860 76
2004-06-11 13:18 51°9.518 2°38.753 10.6 309 17 101860 76
2004-06-11 13:19 51°9.534 2°38.716 11.2 314 17.1 101860 77
2004-06-11 13:20 51°9.55 2°38.679 11.3 314 17.1 101850 77
2004-06-11 13:21 51°9.565 2°38.643 10.6 314 17.1 101860 76
2004-06-11 13:22 51°9.579 2°38.599 10.4 314 17.1 101860 76
2004-06-11 13:23 51°9.6 2°38.542 10.3 310 17.1 101860 76
2004-06-11 13:24 51°9.678 2°38.512 5.2 255 17.1 101860 76
2004-06-11 13:25 51°9.766 2°38.729 3.4 237 17 101880 76
2004-06-11 13:26 51°9.853 2°39.025 3.3 236 17 101880 76
2004-06-11 13:27 51°9.934 2°39.331 2.1 248 17 101870 77
2004-06-11 13:28 51°10.007 2°39.644 1.6 268 17 101880 76
2004-06-11 13:29 51°10.077 2°39.95 2.6 235 17.1 101870 76
2004-06-11 13:30 51°10.153 2°40.279 1.3 249 17.1 101880 76
2004-06-11 13:31 51°10.235 2°40.591 2.8 249 17.1 101880 76
2004-06-11 13:32 51°10.326 2°40.895 2 253 17 101880 75
2004-06-11 13:33 51°10.41 2°41.201 3.7 247 17.1 101880 76
2004-06-11 13:34 51°10.492 2°41.506 2.7 253 17 101880 75
2004-06-11 13:35 51°10.577 2°41.811 4.1 246 17 101870 75
2004-06-11 13:36 51°10.659 2°42.122 4.3 231 17 101870 75
2004-06-11 13:37 51°10.741 2°42.416 2.8 245 17 101870 75
2004-06-11 13:38 51°10.84 2°42.725 3.3 229 17 101870 75
2004-06-11 13:39 51°10.926 2°43.035 2.9 231 17.1 101870 75
2004-06-11 13:40 51°11.013 2°43.346 2.9 215 17.1 101870 74
2004-06-11 13:41 51°11.086 2°43.66 3.6 230 17.1 101870 75
2004-06-11 13:42 51°11.161 2°43.971 2.7 234 17.1 101880 74
2004-06-11 13:43 51°11.233 2°44.284 1.6 249 17.1 101880 75
2004-06-11 13:44 51°11.306 2°44.6 2.3 251 17.2 101880 76
2004-06-11 13:45 51°11.381 2°44.911 3.1 212 17.2 101880 75
2004-06-11 13:46 51°11.451 2°45.217 3.4 228 17.2 101880 75
2004-06-11 13:47 51°11.533 2°45.515 3.4 220 17.2 101880 76
2004-06-11 13:48 51°11.624 2°45.814 3.7 239 17.2 101880 75
2004-06-11 13:49 51°11.711 2°46.115 3.2 238 17.2 101880 75
2004-06-11 13:50 51°11.793 2°46.418 2.9 230 17.2 101870 75
2004-06-11 13:51 51°11.873 2°46.721 3.7 226 17.2 101870 75
2004-06-11 13:52 51°11.953 2°47.024 3.2 245 17.2 101870 76
2004-06-11 13:53 51°12.035 2°47.328 3.6 222 17.2 101870 75
2004-06-11 13:54 51°12.119 2°47.636 3.5 222 17.3 101870 76
2004-06-11 13:55 51°12.197 2°47.936 4.1 233 17.2 101870 75
2004-06-11 13:56 51°12.283 2°48.233 4.1 243 17.3 101870 76
2004-06-11 13:57 51°12.383 2°48.522 2.4 255 17.2 101870 76
2004-06-11 13:58 51°12.482 2°48.816 5.7 245 17.2 101870 76
2004-06-11 13:59 51°12.583 2°49.112 3.2 251 17.1 101870 75
2004-06-11 14:00 51°12.678 2°49.389 5.4 265 17.2 101860 77
2004-06-11 14:01 51°12.786 2°49.694 4 252 17.1 101860 76
2004-06-11 14:02 51°12.883 2°49.985 4.2 272 17.1 101860 77
2004-06-11 14:03 51°12.981 2°50.279 4.6 254 17.1 101860 77
2004-06-11 14:04 51°13.08 2°50.576 6.7 259 17.1 101860 77
2004-06-11 14:05 51°13.177 2°50.871 5.9 257 17.1 101860 77
2004-06-11 14:06 51°13.28 2°51.172 5.1 260 17 101860 77
2004-06-11 14:07 51°13.378 2°51.462 5.4 259 17 101860 77
2004-06-11 14:08 51°13.476 2°51.758 5.7 244 17 101860 78
2004-06-11 14:09 51°13.564 2°52.061 3.7 256 16.9 101860 77
2004-06-11 14:10 51°13.664 2°52.357 4.1 255 16.9 101870 77
2004-06-11 14:11 51°13.76 2°52.654 4.4 257 16.9 101870 78
2004-06-11 14:12 51°13.853 2°52.948 5.8 266 16.9 101870 77
2004-06-11 14:13 51°13.949 2°53.236 3.8 258 16.9 101870 77
2004-06-11 14:14 51°14.049 2°53.541 4 255 17 101860 78
2004-06-11 14:15 51°14.146 2°53.837 5.7 266 16.9 101870 77
2004-06-11 14:16 51°14.257 2°54.117 4.3 238 16.9 101870 77
2004-06-11 14:17 51°14.346 2°54.408 6.2 233 16.9 101870 76
2004-06-11 14:18 51°14.421 2°54.707 2.8 197 17 101870 76
2004-06-11 14:19 51°14.379 2°55.022 5.4 115 17 101860 76
2004-06-11 14:20 51°14.255 2°55.283 7.9 94 17 101860 76
2004-06-11 14:21 51°14.117 2°55.427 6.6 105 17.2 101850 77
2004-06-11 14:22 51°13.991 2°55.516 4 39 17.3 101860 75
2004-06-11 14:23 51°13.869 2°55.605 6.1 86 17.4 101860 74
2004-06-11 14:24 51°13.753 2°55.701 6.8 80 17.5 101860 73
2004-06-11 14:25 51°13.683 2°55.826 1.5 138 17.7 101860 73
2004-06-11 14:26 51°13.639 2°55.952 7.5 157 17.9 101860 72
2004-06-11 14:27 51°13.611 2°56.044 5.8 115 17.9 101860 71
2004-06-11 14:28 51°13.597 2°56.088 4.5 177 17.8 101860 70
2004-06-11 14:29 51°13.593 2°56.096 4.5 35 18 101850 69
2004-06-11 14:30 51°13.595 2°56.101 5.2 181 18 101860 68
2004-06-11 14:31 51°13.596 2°56.097 5.1 170 18 101860 69